GFSGBSN_prec_cthk_114.txt.gz
RH
79 72 68 62 53 48 45 41 36 31 28 25 22 20 19 18 16 14 13 13 12 11 10 9 8 8 9 14 12 10 12 9 8 8 9 13 20 28 28 37 42 37 38 41 41 40 37
76 72 67 60 52 50 45 39 35 31 28 24 22 21 19 18 16 15 13 12 11 10 9 8 8 9 15 17 9 11 10 12 13 11 9 9 10 19 25 30 37 37 42 41 44 41 41
80 70 64 59 52 50 42 38 34 31 28 26 23 21 20 19 17 15 14 12 10 10 9 8 9 9 16 12 13 19 16 12 12 14 11 10 9 13 18 25 30 37 44 44 40 36 42
75 69 63 56 56 51 42 38 32 28 25 22 20 20 20 18 16 14 13 11 11 10 10 10 10 14 23 17 21 19 23 24 16 15 14 14 14 12 16 21 27 34 42 39 28 40 44
80 73 73 60 49 42 38 33 29 26 24 21 21 21 19 17 15 14 12 11 12 13 14 13 16 29 24 20 19 16 15 20 24 20 17 18 17 22 25 20 26 34 28 28 36 46 45
87 78 63 49 41 40 36 29 27 25 22 21 20 20 19 16 15 13 13 14 15 16 19 16 22 23 22 19 17 26 25 25 25 25 33 27 24 24 27 26 27 21 28 36 35 43 48
78 68 60 46 43 37 31 29 26 23 22 21 25 20 16 15 15 17 18 18 18 20 20 16 14 18 21 25 28 28 37 42 40 33 32 42 40 29 21 24 19 22 32 35 34 40 49
77 72 64 49 41 33 29 27 28 25 25 25 17 16 16 16 16 18 22 25 25 24 25 20 26 30 34 38 34 30 42 46 51 45 38 61 62 31 20 18 27 26 33 41 44 46 56
77 63 51 45 41 35 34 32 22 24 26 18 16 16 16 15 19 23 29 26 24 28 28 35 38 36 33 36 37 40 43 54 53 56 49 76 65 37 31 25 30 25 34 40 38 56 72
67 60 58 47 43 40 31 26 30 29 22 15 16 16 16 15 27 25 33 23 25 30 41 40 42 37 30 39 40 50 44 45 62 67 90 92 70 51 45 31 29 30 29 35 51 61 82
74 61 57 52 38 34 34 33 31 27 18 23 16 17 16 21 21 30 25 24 26 35 39 37 36 26 33 51 53 48 52 54 76 84 87 94 89 63 49 24 25 32 39 46 55 66 67
64 59 47 39 52 42 42 35 32 28 21 16 18 19 18 31 32 30 23 23 32 54 58 39 35 25 37 50 64 61 63 61 60 80 84 88 70 67 41 35 30 38 49 58 62 61 70
64 50 57 50 41 44 41 32 32 21 19 23 22 20 20 25 35 25 17 34 51 53 35 35 23 30 45 53 61 68 66 62 47 69 80 71 66 62 45 47 37 49 57 71 79 70 52
62 66 50 47 52 48 36 38 21 21 23 22 22 20 29 31 24 22 29 44 58 44 32 21 24 38 48 49 64 64 54 59 46 51 55 55 91 64 47 48 45 57 53 58 62 61 50
68 50 57 51 53 42 42 26 24 22 21 21 28 32 38 34 20 24 39 52 37 26 23 27 34 45 46 51 74 84 98 72 76 74 82 84 69 69 61 54 55 59 57 60 68 70 71
66 69 54 53 53 39 33 22 17 21 23 21 31 38 40 20 19 35 42 33 25 24 25 35 43 52 50 52 65 86 90 78 77 64 52 79 85 61 73 58 55 59 58 68 66 70 75
74 53 53 60 49 35 22 16 20 25 22 27 34 43 44 21 34 48 46 35 33 26 31 39 48 50 53 51 63 70 82 77 65 66 58 65 80 61 50 66 68 66 60 60 58 58 59
58 63 60 52 39 28 20 18 23 23 25 31 40 46 36 18 52 45 44 29 30 36 38 43 46 50 51 54 69 60 60 67 69 76 66 67 76 83 57 46 45 53 52 55 64 57 51
70 55 53 47 31 24 21 24 27 27 29 38 41 37 33 35 57 44 37 36 37 37 42 41 50 48 52 52 61 77 52 54 62 76 83 74 86 85 69 55 44 36 39 47 55 52 58
64 57 58 36 30 32 29 29 30 29 33 38 41 44 43 42 36 32 39 38 37 47 39 40 49 60 56 52 57 76 54 47 45 66 78 83 85 97 98 98 84 57 37 38 47 58 56
67 68 52 38 32 42 30 35 37 36 37 44 44 44 35 52 51 36 33 33 36 42 46 46 52 60 57 59 56 58 50 42 40 63 59 75 86 86 79 75 91 89 68 55 42 48 53
86 64 53 43 41 46 30 39 44 46 40 48 37 46 41 45 44 35 40 36 36 38 44 47 58 58 58 62 62 53 51 50 43 41 46 61 74 71 65 61 69 86 81 76 66 58 65
88 73 57 47 51 51 30 36 53 47 42 52 51 40 42 47 48 51 49 38 37 36 39 47 49 47 49 54 50 44 46 58 60 48 54 59 69 61 64 58 55 53 62 62 57 56 64
76 66 58 57 54 46 34 35 52 45 46 58 56 43 42 51 47 52 51 49 50 51 48 43 47 52 54 49 39 40 55 65 65 66 55 69 64 63 65 66 58 73 59 58 54 62 66
84 73 72 73 63 51 42 39 51 48 48 59 57 48 48 50 46 46 56 52 54 54 57 56 58 56 54 48 47 53 64 69 73 62 67 65 64 71 68 67 61 80 66 66 70 83 85
78 74 72 73 71 60 52 43 50 48 54 57 54 53 54 53 51 54 52 58 63 62 57 61 64 56 56 56 54 64 76 70 72 84 67 74 62 68 70 74 73 79 79 66 68 92 94
88 76 71 64 62 59 50 46 49 50 58 57 53 53 53 52 52 51 54 64 64 66 63 63 66 60 63 68 59 74 76 70 77 88 84 72 72 69 65 73 93 87 76 70 82 94 98
96 88 76 64 57 53 53 48 53 62 57 57 62 55 54 56 50 52 54 55 58 65 74 73 65 79 70 73 69 78 78 77 78 79 82 88 89 91 86 82 94 91 76 80 96 97 94
92 86 80 81 75 70 67 65 54 57 58 55 55 58 58 58 55 54 49 49 56 60 61 66 67 67 69 79 78 73 65 71 75 84 91 91 87 89 98 97 98 99 94 88 90 93 91

GFSGBSN_prec_cthk_117.txt.gz
RH
93 91 84 79 73 67 60 53 49 45 41 37 34 29 26 24 22 21 19 19 17 16 15 13 12 11 10 13 10 10 13 12 10 11 11 10 12 17 20 16 24 25 30 36 36 41 37
96 93 88 79 72 66 63 56 50 45 41 38 33 30 27 24 23 22 21 20 18 16 15 14 12 11 12 15 10 10 10 12 11 11 11 12 12 10 12 15 21 21 24 28 36 31 35
95 94 87 78 72 68 64 58 51 48 40 38 34 29 27 27 24 22 20 19 17 16 14 14 13 12 14 10 14 14 14 14 15 16 12 12 14 14 12 11 12 18 25 27 25 23 33
96 90 84 77 71 65 55 56 49 45 39 38 35 31 27 25 23 21 20 19 18 16 15 16 15 16 18 19 16 16 14 13 13 15 16 18 15 15 18 15 11 18 25 24 14 24 33
92 88 85 80 73 70 59 61 56 43 38 33 28 27 24 24 23 22 20 19 18 18 16 18 19 23 23 18 17 14 19 24 25 22 19 16 24 21 20 21 21 13 21 18 17 25 33
96 92 86 82 86 78 68 53 43 39 33 30 27 26 24 22 22 23 22 19 19 19 18 20 23 26 18 15 16 16 19 23 25 25 25 22 25 28 24 26 32 18 19 23 25 21 33
96 92 88 92 87 71 58 47 42 37 31 29 27 25 22 23 24 22 23 20 20 25 19 18 16 21 16 15 15 17 24 25 32 30 32 33 38 37 30 26 28 32 39 25 22 23 34
96 93 94 83 68 62 56 48 40 34 32 28 26 27 25 24 24 27 30 28 28 26 22 21 24 26 22 19 22 22 33 37 36 35 40 49 55 38 40 40 43 39 41 42 27 27 44
95 92 80 72 67 61 51 46 36 33 30 31 26 28 26 20 25 30 33 29 27 22 27 31 30 30 26 22 22 30 40 37 36 36 48 54 66 62 53 49 62 45 45 45 38 42 63
98 86 76 73 67 61 46 41 37 31 33 23 25 29 20 20 31 35 31 27 22 23 41 36 32 29 24 22 30 34 47 49 43 45 56 66 70 85 69 58 75 51 47 45 40 48 75
94 90 79 69 59 48 49 36 36 33 22 28 31 22 29 26 26 37 28 20 25 32 45 32 29 25 21 30 34 35 47 50 54 43 61 57 72 97 94 70 71 50 38 35 40 56 77
88 71 67 61 59 47 44 41 32 30 35 36 38 32 28 30 41 33 23 28 34 50 51 30 24 19 20 30 42 41 52 54 50 48 58 62 67 82 85 68 67 40 39 46 55 72 96
74 71 73 58 61 56 36 33 41 46 39 40 25 25 25 30 35 26 21 35 48 57 29 23 15 24 34 37 43 52 52 51 63 63 60 51 58 67 70 65 61 48 45 76 91 94 77
87 77 67 66 54 42 51 46 40 39 42 28 32 28 31 29 23 20 34 44 60 36 25 15 24 28 41 41 43 51 61 54 64 74 77 78 87 81 62 78 48 49 57 79 93 76 62
70 70 64 52 57 55 40 47 41 48 24 34 33 37 34 23 21 30 38 54 34 21 19 25 30 37 42 41 49 56 72 68 60 67 88 79 74 72 71 81 70 49 60 61 70 67 66
77 61 58 61 50 48 52 41 50 27 37 27 35 35 37 31 24 34 38 38 26 21 24 33 36 37 45 46 49 63 64 64 60 67 72 74 81 75 71 71 56 43 44 62 67 81 86
71 75 72 58 63 55 43 48 37 30 22 29 35 43 45 36 34 42 46 41 27 22 30 37 36 40 44 47 49 64 60 59 57 61 65 65 77 70 81 80 68 61 59 58 87 75 80
88 70 65 68 48 61 40 41 29 26 25 35 37 50 41 18 44 47 49 30 29 29 39 37 42 37 44 45 48 56 62 59 56 67 70 70 75 75 68 72 66 63 67 65 77 77 66
77 82 74 49 61 64 46 31 29 26 32 39 47 46 36 33 57 55 42 35 33 37 30 38 40 44 49 46 50 52 57 46 43 57 79 76 75 78 72 63 71 79 66 61 63 68 64
86 69 60 66 61 51 33 28 21 24 33 39 44 50 46 39 37 44 39 40 38 41 40 35 43 46 45 45 47 51 48 40 36 39 58 61 78 95 94 93 94 80 67 62 56 67 63
65 59 65 48 58 39 27 26 23 33 38 42 44 54 43 52 49 42 30 33 36 42 49 43 45 49 48 48 49 55 40 30 34 39 47 52 68 82 80 82 97 94 75 68 60 57 60
66 77 54 66 53 34 26 27 34 37 39 44 42 55 45 44 38 39 37 41 40 40 43 42 47 46 42 48 55 55 43 42 46 50 44 47 61 68 79 79 79 82 76 67 64 64 76
81 73 69 62 47 38 34 45 37 45 50 49 50 48 47 46 45 48 53 42 41 44 45 46 42 41 47 54 51 38 38 62 63 62 70 60 62 62 71 66 76 96 91 79 86 86 75
90 85 85 59 51 46 50 45 38 47 54 54 48 50 48 47 47 46 51 48 47 49 53 53 54 51 50 45 38 38 52 64 65 67 67 68 64 63 75 71 81 95 88 91 97 98 98
84 90 88 72 55 53 53 48 38 45 60 51 45 55 54 47 45 41 47 58 51 50 58 57 60 53 46 47 44 46 59 70 73 77 75 77 74 78 84 80 82 85 83 78 86 95 94
93 90 79 65 55 53 55 45 41 45 57 57 52 59 58 43 47 47 47 50 59 65 61 59 56 49 49 54 53 59 80 84 83 78 72 75 77 82 81 80 96 92 79 82 84 89 89
86 83 82 77 69 66 63 53 48 50 55 57 58 59 57 46 48 49 51 54 53 56 59 59 57 52 55 62 67 70 78 74 85 87 87 77 80 83 85 84 97 96 84 73 84 94 89
92 84 81 78 76 74 70 63 56 57 57 58 59 60 56 48 42 47 48 52 49 52 57 55 59 63 61 67 74 73 77 70 78 94 98 93 91 90 85 83 95 90 81 82 91 91 93
95 94 89 76 76 69 62 63 51 54 59 57 63 65 61 51 48 45 44 45 43 46 53 53 54 54 60 65 74 73 74 74 79 94 86 98 88 91 90 92 92 90 91 94 90 88 90

GFSGBSN_prec_cthk_120.txt.gz
RH
88 88 91 89 86 80 77 72 64 56 51 46 42 42 38 35 33 29 25 24 22 22 20 19 18 16 16 16 12 13 12 13 13 13 12 12 12 14 16 18 18 17 16 15 20 22 26
80 85 82 90 86 85 79 76 68 60 53 49 45 42 39 37 34 31 28 26 24 22 21 21 20 19 19 20 14 14 16 14 13 13 14 13 14 13 15 12 13 14 15 15 16 14 19
74 82 81 88 90 86 84 76 67 61 55 49 46 44 39 37 33 31 29 28 26 24 24 22 22 20 19 16 17 16 13 14 16 16 13 14 15 17 16 16 12 12 15 12 13 14 16
76 79 82 83 83 74 82 73 62 58 51 48 48 41 38 36 35 34 27 26 25 24 24 24 24 24 20 19 17 15 15 15 16 18 21 19 15 14 16 17 17 17 17 16 7 12 15
77 86 75 82 75 69 74 72 70 66 55 52 46 43 37 35 31 27 27 26 24 25 26 26 25 24 21 20 18 16 18 19 19 19 21 21 22 19 18 26 26 19 24 19 13 11 17
72 92 78 79 74 77 80 77 74 68 61 57 42 38 32 28 27 28 29 28 28 27 27 25 26 25 21 20 18 17 20 21 20 22 25 25 25 26 25 31 37 20 24 20 19 10 18
74 90 75 81 94 88 85 83 74 68 57 43 41 37 34 29 29 31 30 31 26 24 23 20 23 25 23 22 19 18 21 21 21 24 28 29 32 32 29 32 36 37 36 38 23 16 22
90 76 81 91 88 90 90 83 71 53 43 40 37 34 31 29 34 40 39 32 29 27 26 26 29 28 23 21 19 20 21 25 27 29 27 32 38 37 44 49 52 51 53 52 37 25 26
80 75 86 97 96 88 89 73 52 42 38 38 32 31 29 33 39 42 34 30 31 28 29 30 28 25 21 21 18 24 25 27 32 30 36 42 31 38 50 58 76 70 53 50 57 33 39
80 97 88 98 95 95 73 54 41 42 40 36 32 31 34 29 39 39 33 36 29 29 41 34 28 27 21 20 23 21 31 35 36 39 39 36 33 45 53 57 82 88 72 54 57 49 66
81 98 97 98 94 74 66 54 49 46 36 32 31 34 31 35 39 40 39 34 35 35 42 32 27 19 21 21 22 27 38 39 42 43 48 45 51 67 71 74 82 76 87 54 58 47 67
94 91 97 92 81 71 65 60 45 43 33 36 33 28 37 44 47 38 40 34 37 45 41 28 22 19 20 21 26 33 41 44 47 50 49 53 55 65 67 68 71 76 77 74 67 66 74
98 98 92 83 82 76 59 50 49 37 40 31 32 40 51 36 37 46 28 38 46 44 27 24 16 21 24 27 30 42 51 52 62 64 59 54 51 72 85 78 62 73 76 85 82 83 83
98 96 96 85 69 60 57 48 43 36 35 38 47 39 26 40 39 29 34 41 42 31 24 15 22 25 26 27 36 50 58 63 57 59 59 65 58 64 71 94 91 69 63 54 66 72 69
96 91 74 67 70 62 54 50 37 39 43 50 45 32 41 37 31 31 37 46 32 20 18 21 23 26 26 32 44 53 65 64 57 55 69 68 58 55 66 77 78 50 48 43 67 82 67
93 88 83 74 64 65 49 41 45 50 47 50 41 43 42 34 31 36 38 35 25 20 20 25 28 30 34 36 47 59 61 57 55 55 68 66 70 57 69 70 62 59 45 66 79 91 81
94 81 76 73 67 52 52 50 49 54 46 32 45 52 42 34 37 39 43 39 27 22 25 26 28 34 34 41 43 60 59 56 50 46 54 69 76 64 75 95 83 70 65 70 79 86 90
83 83 80 67 63 60 45 48 52 52 46 49 44 53 42 31 45 44 46 33 24 26 26 27 29 34 42 45 40 45 51 54 47 41 47 69 83 84 75 78 78 78 83 77 80 95 94
90 76 70 71 62 52 55 52 56 44 43 42 55 49 35 35 54 54 45 34 28 29 27 29 32 40 44 46 41 39 40 38 38 31 38 54 74 86 71 67 65 89 90 88 92 90 89
86 87 78 66 66 65 58 50 48 40 43 48 48 52 47 49 49 45 41 35 34 36 35 34 43 53 49 44 40 40 41 33 32 38 40 50 68 85 89 85 84 90 89 84 88 91 77
93 80 87 78 59 63 65 55 40 38 37 40 46 50 50 51 45 42 40 31 36 41 40 43 43 47 45 45 42 43 33 38 41 50 52 48 55 63 70 86 94 90 89 82 76 76 73
90 88 79 60 73 72 57 52 44 33 35 37 44 49 51 46 39 38 35 32 31 36 37 39 42 39 38 41 46 42 40 54 61 58 55 52 52 56 71 74 95 95 86 86 81 84 90
90 69 69 76 75 53 42 40 35 30 32 39 50 50 50 49 45 45 46 38 37 39 39 42 46 47 46 48 44 35 41 61 72 75 63 60 58 60 70 68 88 90 97 95 90 86 87
74 72 80 66 68 51 38 37 35 35 43 42 47 48 49 58 48 48 44 47 46 44 45 51 54 54 50 42 39 37 52 60 73 72 69 65 67 68 74 70 94 98 95 98 95 94 96
86 85 76 75 76 48 40 33 40 44 50 54 53 51 47 60 55 46 44 44 48 48 49 55 55 50 45 45 47 48 57 64 71 71 71 78 74 74 80 80 98 90 90 95 95 95 98
95 93 90 90 73 50 45 44 57 52 50 56 56 52 45 57 61 48 46 43 46 52 58 53 50 47 47 53 57 59 70 69 75 76 69 76 81 79 77 81 89 87 82 89 90 95 95
95 91 92 91 77 55 49 47 59 52 46 54 62 51 46 52 59 48 47 47 43 47 47 51 52 51 48 61 66 68 68 65 77 88 94 88 80 83 85 86 86 82 80 78 85 90 94
97 96 94 88 79 62 52 49 55 56 47 49 58 55 51 53 55 46 49 44 45 47 49 44 43 51 54 65 70 70 69 69 73 91 93 89 92 89 83 87 85 77 73 78 86 88 87
96 95 92 87 76 70 63 59 56 63 55 53 56 55 55 53 54 48 46 43 43 44 44 47 46 46 53 59 65 70 73 73 73 88 88 96 88 86 87 88 87 85 86 84 87 87 85

GFSGBSN_prec_cthk_123.txt.gz
RH
72 69 70 74 78 85 82 80 75 72 68 65 58 51 45 41 39 36 34 32 31 29 27 25 23 22 21 19 18 18 17 17 17 17 16 14 13 13 15 15 14 14 14 14 15 17 17
69 73 73 67 66 73 81 74 76 73 71 70 65 54 47 44 41 38 33 32 31 30 28 27 27 25 24 22 21 21 20 20 20 19 18 17 16 15 16 16 14 13 13 13 11 12 13
75 69 74 72 68 68 76 70 74 71 75 76 64 55 48 46 43 39 35 33 32 30 30 30 28 28 25 27 24 23 22 21 20 20 19 18 18 17 16 18 16 16 16 13 9 9 12
88 69 84 74 66 74 72 70 73 71 65 65 57 54 48 45 45 40 37 35 33 33 31 29 28 27 26 26 24 23 22 20 19 19 20 19 21 22 20 18 17 19 18 17 8 10 12
69 79 75 90 71 80 80 68 69 60 55 59 56 54 48 46 43 38 39 38 35 30 29 30 31 30 28 27 24 22 22 21 20 21 21 22 24 23 20 21 25 25 24 19 13 11 12
40 60 63 92 79 83 90 86 71 62 60 61 62 50 47 46 44 39 36 33 33 31 31 34 33 34 29 26 24 22 24 23 23 23 22 24 26 25 25 27 29 23 29 23 23 13 17
37 46 54 85 83 83 96 85 72 65 70 68 62 55 47 37 33 35 29 32 33 33 35 32 28 29 28 27 24 23 23 24 24 25 31 29 31 28 26 30 30 30 37 40 30 33 28
39 50 49 59 69 82 84 86 79 85 78 71 62 55 40 31 30 30 28 30 29 32 35 31 34 33 29 27 24 24 24 28 25 29 31 33 33 24 26 33 42 41 43 44 47 39 52
48 45 61 56 72 86 86 91 89 90 85 68 56 39 34 28 32 32 33 33 39 36 32 36 35 31 27 27 24 22 25 27 30 30 32 35 25 29 33 35 48 46 56 60 68 52 61
51 54 62 61 62 87 95 97 93 89 73 57 47 35 34 29 36 37 42 42 36 34 44 43 37 32 29 25 25 19 28 32 35 35 36 35 32 38 43 50 61 57 63 75 84 85 78
57 56 56 74 66 81 96 96 97 80 65 48 42 38 31 33 38 42 40 38 36 43 49 48 37 27 26 22 21 23 31 31 36 39 45 43 40 44 52 57 65 68 71 84 76 74 72
66 67 67 95 86 78 96 93 82 68 55 47 43 39 33 34 38 39 36 44 49 61 48 36 31 27 20 20 22 28 33 34 38 41 44 41 38 42 45 53 71 74 79 76 75 80 86
84 85 84 80 98 98 98 83 74 58 53 47 43 35 39 37 40 45 43 44 59 50 34 36 26 21 22 22 25 33 40 39 45 51 45 42 38 42 48 65 69 73 65 83 85 87 70
98 98 98 98 94 94 84 69 57 57 46 47 38 39 42 42 48 40 42 59 49 39 31 23 19 22 23 25 30 35 41 46 43 47 54 62 53 45 55 68 76 88 67 72 87 94 84
97 98 98 98 95 81 67 66 60 51 52 42 41 36 35 41 34 41 56 51 43 29 22 19 20 25 28 31 34 36 48 52 47 45 58 64 59 45 60 67 80 74 80 65 75 88 96
97 98 98 96 93 89 78 56 58 51 45 44 44 42 46 38 41 56 50 42 30 21 17 21 26 28 32 33 34 42 44 47 50 47 45 53 67 52 62 73 76 84 76 74 83 97 87
97 97 95 93 79 70 68 61 48 51 49 55 58 58 49 49 55 50 48 41 26 22 20 24 27 29 32 36 35 41 46 42 46 41 36 49 75 62 65 89 88 86 85 87 91 96 96
96 89 88 83 81 67 53 56 53 45 51 67 64 56 48 51 55 49 48 35 26 21 25 27 27 32 37 37 35 36 42 40 36 36 42 45 64 77 68 76 76 85 94 88 92 87 92
97 95 90 81 68 64 61 43 45 60 69 67 57 57 54 52 60 58 47 30 26 25 24 27 29 35 35 36 40 38 37 33 33 39 44 43 55 78 65 66 68 77 84 95 88 90 95
92 95 92 84 72 59 51 56 57 69 74 62 59 53 44 59 63 46 37 35 30 29 29 32 36 34 35 37 37 37 35 34 39 46 53 49 50 67 87 87 94 88 83 86 90 95 90
93 90 82 70 62 69 53 50 61 73 65 60 46 52 52 67 51 40 40 36 32 33 34 37 36 34 37 38 37 39 38 48 47 54 57 55 56 61 76 87 96 91 87 91 90 92 94
95 84 79 81 67 54 56 62 68 66 58 46 43 59 51 55 44 43 41 37 30 30 32 34 34 35 35 36 40 37 41 52 57 60 60 61 61 59 76 79 94 92 85 87 88 92 97
96 90 88 75 65 62 70 62 65 48 51 48 52 56 45 52 48 44 40 35 33 32 34 35 38 39 41 43 40 36 44 55 61 66 69 68 71 69 69 74 98 89 94 95 93 92 96
96 93 91 78 69 75 79 64 45 53 48 35 40 54 50 56 51 44 40 37 42 37 37 44 44 48 45 39 37 39 50 60 67 70 71 73 71 74 80 87 92 97 97 98 98 97 97
98 94 82 74 85 81 68 55 54 47 40 40 43 54 54 59 57 50 44 42 44 45 47 46 45 45 41 41 46 51 56 61 64 70 67 76 74 75 83 93 94 84 86 97 98 94 96
91 79 82 89 83 65 48 45 46 40 36 37 52 49 51 58 63 59 48 44 43 45 49 49 45 42 42 47 54 61 66 65 69 68 68 69 71 77 76 83 91 83 79 86 92 92 92
91 87 89 73 77 66 50 44 43 40 42 54 55 54 55 59 61 62 51 45 42 42 44 41 42 45 43 56 64 67 63 62 73 76 82 81 76 78 79 84 84 77 73 76 77 86 85
97 96 95 90 87 70 50 42 46 48 48 55 58 54 55 51 51 56 52 46 43 42 43 39 38 43 45 57 62 66 66 66 71 78 81 80 80 78 77 77 79 75 69 74 79 80 81
98 97 97 96 92 72 53 45 52 59 65 54 52 51 57 50 47 51 56 44 41 44 42 41 40 43 46 49 54 61 68 69 71 80 77 87 82 77 79 79 78 77 78 80 81 81 82

GFSGBSN_prec_cthk_129.txt.gz
RH
82 92 84 86 85 79 81 76 72 71 72 69 74 79 67 65 58 54 47 43 40 39 39 37 32 29 29 28 28 29 29 29 29 28 26 25 24 24 23 22 21 19 19 19 18 17 15
72 73 79 84 92 80 69 71 74 68 68 66 62 64 68 61 59 58 55 45 42 41 40 40 36 31 29 27 28 28 28 28 28 27 28 27 27 25 23 22 20 20 19 17 16 15 15
38 51 63 76 68 82 71 70 67 76 74 63 66 59 63 59 60 57 51 45 40 35 38 39 37 33 31 29 30 31 31 31 31 31 30 30 29 27 25 23 22 20 19 18 14 14 14
24 27 38 43 62 55 68 65 66 73 80 76 65 66 52 57 53 48 44 41 34 35 32 37 34 33 32 31 31 30 31 31 31 32 31 31 30 29 28 27 25 24 22 19 15 14 13
23 24 25 32 35 34 39 67 61 71 75 86 76 73 65 52 49 45 38 34 31 30 31 35 32 31 32 31 30 29 30 31 32 32 32 32 31 31 30 30 26 25 19 21 18 14 16
22 23 23 24 27 34 31 39 47 57 72 86 80 79 76 58 53 45 39 37 32 31 33 32 30 32 31 30 28 27 28 30 32 33 34 34 32 32 31 29 22 20 22 20 20 19 22
19 20 23 22 23 25 31 33 38 44 62 76 79 89 77 64 62 55 48 46 38 37 37 35 31 31 28 26 27 27 28 32 35 37 39 37 34 31 27 26 25 27 27 25 21 20 33
17 17 18 21 21 24 29 30 37 41 59 69 78 91 88 71 72 60 55 50 46 43 39 37 32 28 26 26 26 30 33 37 39 41 40 36 34 29 29 27 30 31 32 29 23 26 40
15 15 15 16 18 21 27 33 37 39 50 63 80 77 65 83 75 64 68 58 49 40 37 36 33 31 30 31 31 35 38 41 43 44 41 36 30 29 29 28 33 33 35 34 39 32 36
15 13 11 12 15 20 30 35 38 36 50 67 96 64 63 60 58 66 64 62 49 37 44 37 37 35 33 35 37 39 41 42 45 41 35 32 30 31 32 30 31 39 34 38 43 54 49
16 14 11 14 21 25 36 39 40 43 52 78 68 79 64 71 72 75 71 56 41 39 38 42 39 37 37 38 36 42 44 42 41 36 35 29 32 36 39 36 37 38 43 46 51 60 61
14 11 12 21 28 32 40 43 44 55 52 65 61 80 86 67 72 74 58 50 43 47 35 44 41 44 44 42 42 41 36 32 35 34 30 29 30 35 38 37 40 41 48 51 52 61 63
16 23 27 32 36 40 46 49 53 55 65 62 73 71 79 69 78 65 59 53 53 44 39 40 45 46 44 42 41 41 42 40 32 27 26 26 32 38 41 45 45 57 64 57 48 55 38
34 45 50 47 45 53 49 54 64 67 67 70 77 71 74 71 68 61 52 55 49 45 41 42 47 43 43 41 40 37 37 35 35 34 34 30 25 37 43 48 56 67 77 72 74 53 46
64 69 72 79 79 69 66 68 69 85 76 72 91 78 76 65 59 54 56 62 46 46 44 46 48 50 43 36 34 32 36 36 36 33 29 33 30 32 38 64 72 88 88 78 79 61 67
84 97 94 98 99 82 81 79 80 81 76 88 83 85 67 70 65 56 57 47 40 46 48 50 47 39 43 38 32 30 31 37 35 32 28 33 41 29 37 67 77 79 81 84 83 82 73
93 96 94 96 98 97 93 89 90 79 76 87 78 76 78 63 62 58 58 54 47 48 48 46 44 41 38 34 28 31 35 35 32 28 30 36 41 32 33 54 68 76 75 79 82 86 90
85 97 98 97 97 97 98 98 99 89 77 77 78 83 77 73 61 61 57 50 52 48 48 40 43 37 32 27 28 28 33 30 29 27 35 44 47 47 33 49 58 69 75 80 87 83 84
73 95 97 98 98 97 97 97 92 77 77 85 80 82 84 72 77 76 68 59 50 49 48 49 40 31 26 26 29 30 31 29 26 33 43 47 53 54 32 51 59 74 80 88 91 92 96
74 93 97 97 96 93 88 87 92 90 90 78 76 86 76 74 72 60 59 61 61 56 49 36 33 26 23 27 29 31 28 27 32 39 46 49 51 53 51 50 75 82 83 90 89 95 97
76 94 96 97 97 95 93 89 77 80 82 77 67 68 71 71 78 72 60 64 59 49 40 37 32 23 26 30 30 31 32 33 42 47 49 50 53 53 52 54 81 96 87 91 96 95 88
79 96 95 93 86 87 85 88 88 88 84 76 69 69 75 76 71 66 59 57 46 43 43 33 27 28 29 28 28 32 32 39 46 49 52 54 56 56 57 65 89 95 95 87 95 95 95
79 96 96 93 92 89 77 74 83 85 85 75 68 70 70 63 63 60 59 52 51 46 39 29 29 31 31 33 33 34 31 36 46 53 56 57 56 61 65 69 95 96 96 96 95 95 96
82 97 96 90 78 72 74 75 71 74 72 79 70 59 51 60 62 64 61 51 54 40 33 30 30 34 38 37 34 33 37 47 53 56 57 59 61 65 67 76 94 97 92 98 97 97 97
84 95 94 88 88 70 62 63 70 91 90 76 62 51 45 65 72 57 54 57 49 41 35 31 33 35 37 35 38 44 53 57 60 58 59 59 61 67 70 70 88 83 87 92 95 95 96
87 95 88 82 66 62 66 70 87 93 84 70 59 45 51 67 67 53 54 52 42 43 44 38 36 37 36 39 44 49 52 53 58 58 59 62 63 66 65 75 78 75 73 82 88 92 92
91 97 93 84 82 67 67 71 88 88 70 55 43 55 60 55 58 59 54 49 44 41 44 43 40 39 36 43 50 52 51 50 56 58 62 62 62 66 67 72 80 83 73 80 82 84 84
98 98 97 89 74 62 77 72 74 67 56 47 45 53 65 59 64 60 58 55 45 35 35 39 38 39 42 48 48 53 51 54 57 62 61 58 60 62 62 69 72 75 69 72 80 79 79
98 98 98 93 86 82 83 85 65 55 54 51 47 46 61 61 62 65 62 55 48 37 32 34 33 36 39 43 48 51 52 53 55 61 61 68 64 65 65 69 70 71 71 73 73 73 73

GFSGBSN_prec_cthk_132.txt.gz
RH
69 75 73 82 88 90 91 90 84 80 79 78 70 68 64 67 69 64 62 61 53 46 42 38 36 34 31 30 31 29 29 30 30 31 30 29 30 28 26 25 24 23 21 21 19 18 16
37 45 54 61 70 87 94 93 89 94 74 75 71 67 62 55 62 59 60 62 61 53 46 43 37 35 34 30 30 28 28 30 30 30 32 31 30 29 28 27 26 25 23 21 19 18 16
27 28 34 44 45 60 79 81 86 98 79 74 69 68 64 54 53 50 57 57 55 57 47 43 36 32 30 29 30 31 31 31 31 30 29 28 28 29 28 27 26 23 22 19 17 16 14
25 26 26 27 31 42 52 61 77 87 89 73 67 69 70 68 53 46 52 48 47 45 44 38 33 30 31 28 30 31 32 33 31 29 29 29 29 30 29 28 27 25 23 21 20 18 17
16 20 23 24 25 26 34 40 49 60 74 67 67 66 72 77 63 62 51 43 42 39 35 34 30 29 27 28 31 31 31 28 26 26 26 26 28 30 30 28 25 27 20 20 20 19 18
22 19 20 20 22 24 25 29 33 36 48 56 67 66 72 69 71 66 62 52 45 38 32 29 30 31 26 27 27 29 28 26 25 27 30 32 32 31 31 28 21 22 21 20 21 20 21
23 21 19 19 20 22 23 24 26 33 37 40 57 70 72 68 70 74 58 61 56 53 37 33 29 27 28 29 29 31 28 26 28 29 32 35 33 31 30 29 26 26 26 22 22 20 25
17 20 16 17 18 19 21 23 24 30 34 40 41 50 63 76 78 71 66 62 63 56 50 41 36 33 29 28 31 32 27 29 30 32 35 37 35 37 34 32 30 28 25 23 23 28 28
20 19 18 16 15 16 17 19 25 28 35 39 41 45 54 72 79 62 72 71 63 59 52 43 39 35 30 30 35 35 31 32 35 39 41 40 41 39 36 32 32 25 26 25 24 31 31
21 20 15 12 12 12 13 17 20 29 39 37 46 47 55 71 68 87 80 70 69 55 56 45 43 39 33 37 37 33 31 33 36 38 38 40 40 36 32 30 30 25 25 28 28 35 43
21 18 13 12 10 10 10 12 18 29 34 40 41 53 58 70 71 81 74 66 52 54 58 44 42 44 40 39 37 39 38 37 38 38 39 37 33 37 40 32 29 27 30 34 37 42 45
21 21 13 9 9 6 9 12 16 27 33 38 39 53 53 62 66 72 62 56 48 56 56 48 47 42 40 39 39 41 42 38 36 34 35 33 29 28 29 31 34 35 40 42 43 44 50
25 25 17 11 12 11 9 10 17 29 34 35 50 54 52 66 87 85 81 64 59 56 43 42 43 45 46 44 42 42 41 37 36 35 30 21 27 31 34 36 39 47 48 45 49 52 44
29 30 20 16 28 27 23 24 26 33 36 46 59 64 65 74 93 71 81 60 58 42 44 42 48 47 50 45 46 44 45 42 39 28 23 20 31 31 34 39 50 55 56 58 65 52 48
31 36 32 39 50 50 45 41 43 47 51 61 66 68 67 72 83 95 85 71 51 41 44 49 53 47 47 47 46 40 43 39 36 24 23 22 22 21 25 43 50 64 70 67 72 59 62
33 44 48 64 81 69 61 55 53 60 68 69 75 89 82 81 80 88 75 54 47 49 42 40 48 46 50 51 45 48 36 38 32 25 23 27 29 25 24 42 49 55 63 69 77 78 66
38 51 64 85 99 92 87 66 67 74 76 77 80 87 82 98 90 76 75 64 48 45 43 44 43 48 50 46 40 40 40 34 28 24 27 32 31 29 28 38 46 53 66 70 70 68 73
40 53 74 93 92 95 92 92 87 86 82 76 97 88 91 83 93 80 79 63 48 52 53 48 51 51 45 35 38 35 32 28 28 23 32 38 38 37 33 36 48 57 64 72 79 75 74
44 52 72 98 98 97 96 97 88 84 85 96 94 88 83 94 90 79 72 55 54 50 48 48 52 48 41 36 35 28 28 27 23 27 38 39 44 43 45 55 55 61 65 71 79 82 94
49 55 68 95 98 97 97 97 98 97 96 97 75 85 96 95 88 72 60 55 56 56 54 54 50 47 39 32 27 26 25 26 26 30 35 38 41 47 48 55 57 70 66 69 77 90 93
53 58 71 94 98 98 97 97 98 97 95 87 81 87 87 91 84 74 59 56 60 63 61 60 57 42 31 27 25 25 24 27 33 38 39 37 42 46 52 52 70 84 78 77 89 90 90
58 60 74 94 97 97 96 98 98 97 94 89 85 88 87 78 77 78 73 67 60 63 66 58 37 29 24 23 23 27 25 32 35 38 38 42 49 53 58 72 79 88 84 76 83 94 89
62 66 74 93 97 97 97 97 98 97 93 87 80 80 75 79 77 67 60 64 67 65 55 42 35 35 30 27 28 30 30 34 35 37 43 50 54 60 57 65 93 94 95 93 92 93 94
67 73 81 92 94 93 93 94 98 92 92 82 73 71 78 70 71 70 66 62 53 49 45 48 43 34 32 32 32 32 32 32 37 41 44 50 60 61 55 61 88 93 91 95 93 92 93
70 74 85 92 87 82 86 92 96 96 91 81 77 78 77 66 63 58 61 61 57 58 55 44 38 34 36 35 39 45 46 46 47 48 49 51 61 61 59 53 75 75 72 78 86 86 83
73 78 86 93 80 79 82 89 93 96 90 85 75 61 61 58 67 68 68 63 61 56 49 42 35 32 36 39 45 45 45 42 49 52 51 53 59 62 57 58 64 70 64 70 76 77 79
75 79 90 94 87 76 73 73 81 92 90 80 67 53 55 68 79 64 57 63 62 51 47 40 37 36 38 45 48 45 43 42 46 51 54 56 58 60 57 57 67 69 65 74 77 79 71
78 83 93 80 70 69 71 85 92 95 86 79 59 56 62 75 65 57 55 53 46 46 48 47 38 37 41 46 43 43 42 42 44 50 53 53 55 57 54 58 66 66 62 64 70 71 71
85 87 94 86 78 81 77 84 94 82 74 60 52 65 60 52 62 62 60 50 41 36 40 46 40 37 39 44 43 41 45 44 45 53 53 58 55 56 57 64 61 62 64 65 66 67 69

GFSGBSN_prec_cthk_135.txt.gz
RH
47 56 71 81 88 88 92 93 95 91 86 85 82 80 78 72 65 63 62 62 64 64 57 46 42 40 38 37 35 33 29 28 28 28 29 28 28 28 26 26 25 24 25 24 22 21 20
30 33 35 42 52 63 72 81 86 94 97 95 91 83 79 71 66 64 57 63 64 64 63 53 46 45 44 41 40 36 33 31 32 31 31 31 31 30 28 28 27 25 25 23 21 20 20
22 27 30 27 37 40 45 58 64 75 95 98 92 91 76 77 68 63 52 50 50 59 58 53 49 44 42 39 36 35 32 33 31 31 33 34 32 30 31 27 30 26 24 23 21 20 19
20 23 23 28 28 30 38 43 47 57 65 92 94 90 84 74 70 64 62 55 49 48 45 44 43 40 37 36 32 31 32 30 29 31 31 30 29 27 26 26 24 24 24 22 20 20 20
20 16 18 20 23 25 29 30 37 39 54 63 89 81 90 91 78 65 61 65 61 48 39 36 33 31 28 29 29 30 27 26 28 30 29 24 25 27 27 29 25 23 23 22 20 19 20
19 25 25 20 18 20 21 25 26 33 38 37 56 75 78 76 75 64 59 57 62 56 49 41 34 31 26 26 29 25 25 24 24 28 30 28 28 30 29 28 27 26 25 22 20 20 20
14 14 20 23 20 17 19 20 22 23 26 33 36 48 67 63 82 72 71 54 54 70 64 53 45 32 30 28 25 25 24 24 26 30 29 32 27 26 27 29 26 24 24 24 24 24 25
11 13 14 15 14 13 16 20 21 22 22 26 30 39 45 54 60 76 59 66 58 68 64 53 48 41 36 32 30 27 24 26 30 31 33 33 35 31 31 30 30 29 29 28 28 29 26
14 12 13 18 18 13 12 14 17 19 22 25 29 32 40 48 50 59 69 61 73 81 74 57 49 45 38 35 30 32 27 31 32 35 34 31 31 34 29 30 33 32 28 28 26 23 22
15 10 10 12 13 13 12 14 13 15 20 24 33 35 40 45 52 47 52 68 66 60 71 54 62 51 44 38 36 34 34 36 36 34 35 32 35 31 32 31 32 32 30 26 26 26 31
13 10 11 11 11 11 10 10 11 13 15 23 32 35 36 40 57 44 55 74 68 82 93 64 46 46 40 35 35 34 39 36 37 39 33 44 37 34 34 34 31 26 24 23 25 33 39
12 11 11 11 11 10 8 8 10 13 14 21 31 33 34 56 53 55 65 69 81 77 91 60 48 41 36 36 36 41 40 36 39 38 35 33 31 32 37 29 28 28 29 28 38 40 43
14 12 12 12 11 8 6 7 10 12 14 17 27 33 34 53 56 61 67 75 84 90 65 58 45 36 33 36 36 41 41 40 39 37 35 33 33 34 29 30 35 35 40 42 47 61 48
17 15 14 15 12 8 9 9 11 11 17 21 28 36 49 51 61 67 68 93 86 59 60 42 32 36 38 37 39 40 44 45 39 35 38 32 42 33 31 27 34 39 40 47 56 47 48
20 19 19 20 13 10 15 24 26 27 29 31 38 48 56 59 61 68 64 86 84 74 61 54 47 44 42 43 45 45 46 40 44 35 34 27 31 25 19 25 36 54 61 46 52 47 51
24 23 23 26 21 19 36 52 40 37 35 35 43 54 56 65 65 72 75 79 78 66 59 57 53 51 51 49 52 58 45 44 41 31 24 29 29 20 24 26 39 37 43 50 61 72 65
27 27 30 35 34 33 68 73 53 40 38 41 48 58 67 67 79 85 82 77 78 66 58 59 54 49 50 45 47 52 43 47 38 29 24 25 27 31 23 31 39 44 58 48 44 54 66
30 29 34 46 52 73 98 99 67 52 48 56 66 75 67 77 93 80 86 83 68 59 57 54 45 50 50 49 48 40 49 42 38 27 26 30 37 34 32 30 34 38 43 46 65 63 91
36 32 36 52 67 94 97 97 88 73 73 71 74 81 89 90 91 77 68 60 51 54 58 56 51 50 47 47 49 40 44 40 35 22 30 32 37 43 45 45 46 52 46 47 56 72 70
38 37 39 52 73 97 97 98 95 84 88 88 86 93 95 95 97 89 81 80 66 68 64 58 54 50 51 53 46 41 44 38 27 25 33 34 40 38 42 48 48 54 51 53 65 83 96
44 42 43 53 70 97 98 97 95 97 98 98 96 78 79 83 89 84 86 73 67 65 63 65 58 54 51 52 45 38 38 34 26 32 34 41 40 37 35 33 44 50 57 69 82 88 84
47 45 47 56 69 94 97 98 97 98 98 98 81 84 91 91 88 80 71 66 73 67 55 50 47 48 47 46 34 37 34 29 33 36 41 40 45 38 39 45 61 63 78 77 80 85 93
51 49 51 61 73 93 97 98 97 98 97 95 95 90 88 80 77 84 79 72 69 59 60 58 64 65 58 46 36 33 28 34 35 39 41 45 44 40 54 55 75 85 87 84 84 85 84
53 50 55 66 81 96 97 97 96 98 96 97 93 93 92 91 89 83 76 76 75 70 70 70 63 49 49 39 35 33 34 36 38 39 44 48 42 39 51 65 88 92 81 83 86 86 86
60 57 60 71 84 97 98 97 99 98 96 98 93 95 85 90 80 79 75 72 75 75 70 56 53 51 41 39 37 40 40 40 41 43 44 43 41 46 47 59 80 61 59 71 73 77 74
62 61 66 71 86 91 95 98 97 96 93 89 84 87 84 78 77 71 73 74 75 69 62 66 58 47 36 40 45 42 44 42 49 52 50 47 44 47 58 55 74 75 59 58 62 73 71
65 68 72 72 82 88 90 91 95 95 92 87 85 84 88 82 78 75 76 73 67 60 60 61 49 43 43 47 53 51 51 46 57 56 55 51 50 50 53 52 70 57 54 60 67 76 66
69 72 76 78 82 87 89 92 95 97 93 86 80 78 78 71 78 83 78 75 68 70 62 50 48 47 40 54 52 53 52 47 50 53 50 47 49 50 52 53 66 59 55 60 65 59 59
72 74 79 86 88 79 77 84 92 96 96 79 75 69 75 82 85 77 69 69 71 66 62 50 48 39 42 50 52 51 46 49 47 53 46 53 49 59 52 70 60 54 54 54 56 59 62